Year,Month,Day,Hour,Minute,Value (Times are PST for temperature in C)
2016,05,01,00,00,10.80
2016,05,01,00,01,10.80
2016,05,01,00,02,10.80
2016,05,01,00,03,10.80
2016,05,01,00,04,10.80
2016,05,01,00,05,10.80
2016,05,01,00,06,10.80
2016,05,01,00,07,10.80
2016,05,01,00,08,10.80
2016,05,01,00,09,10.90
2016,05,01,00,10,10.90
2016,05,01,00,11,10.90
2016,05,01,00,12,10.90
2016,05,01,00,13,11.00
2016,05,01,00,14,11.00
2016,05,01,00,15,11.10
2016,05,01,00,16,11.10
2016,05,01,00,17,11.20
2016,05,01,00,18,11.20
2016,05,01,00,19,11.20
2016,05,01,00,20,11.30
2016,05,01,00,21,11.40
2016,05,01,00,22,11.40
2016,05,01,00,23,11.40
2016,05,01,00,24,11.50
2016,05,01,00,25,11.50
2016,05,01,00,26,11.50
2016,05,01,00,27,11.50
2016,05,01,00,28,11.50
2016,05,01,00,29,11.40
2016,05,01,00,30,11.40
2016,05,01,00,31,11.40
2016,05,01,00,32,11.40
2016,05,01,00,33,11.40
2016,05,01,00,34,11.40
2016,05,01,00,35,11.40
2016,05,01,00,36,11.40
2016,05,01,00,37,11.40
2016,05,01,00,38,11.40
2016,05,01,00,39,11.40
2016,05,01,00,40,11.40
2016,05,01,00,41,11.50
2016,05,01,00,42,11.50
2016,05,01,00,43,11.50
2016,05,01,00,44,11.50
2016,05,01,00,45,11.50
2016,05,01,00,46,11.50
2016,05,01,00,47,11.50
2016,05,01,00,48,11.40
2016,05,01,00,49,11.40
2016,05,01,00,50,11.40
2016,05,01,00,51,11.40
2016,05,01,00,52,11.40
2016,05,01,00,53,11.30
2016,05,01,00,54,11.30
2016,05,01,00,55,11.30
2016,05,01,00,56,11.20
2016,05,01,00,57,11.20
2016,05,01,00,58,11.20
2016,05,01,00,59,11.10
2016,05,01,01,00,11.10
2016,05,01,01,01,11.00
2016,05,01,01,02,10.90
2016,05,01,01,03,10.90
2016,05,01,01,04,10.90
2016,05,01,01,05,10.80
2016,05,01,01,06,10.80
2016,05,01,01,07,10.80
2016,05,01,01,08,10.80
2016,05,01,01,09,10.70
2016,05,01,01,10,10.70
2016,05,01,01,11,10.70
2016,05,01,01,12,10.70
2016,05,01,01,13,10.70
2016,05,01,01,14,10.60
2016,05,01,01,15,10.60
2016,05,01,01,16,10.60
2016,05,01,01,17,10.60
2016,05,01,01,18,10.60
2016,05,01,01,19,10.60
2016,05,01,01,20,10.60
2016,05,01,01,21,10.60
2016,05,01,01,22,10.60
2016,05,01,01,23,10.60
2016,05,01,01,24,10.50
2016,05,01,01,25,10.50
2016,05,01,01,26,10.50
2016,05,01,01,27,10.50
2016,05,01,01,28,10.50
2016,05,01,01,29,10.40
2016,05,01,01,30,10.40
2016,05,01,01,31,10.40
2016,05,01,01,32,10.40
2016,05,01,01,33,10.40
2016,05,01,01,34,10.40
2016,05,01,01,35,10.30
2016,05,01,01,36,10.30
2016,05,01,01,37,10.30
2016,05,01,01,38,10.30
2016,05,01,01,39,10.30
2016,05,01,01,40,10.30
2016,05,01,01,41,10.30
2016,05,01,01,42,10.20
2016,05,01,01,43,10.20
2016,05,01,01,44,10.20
2016,05,01,01,45,10.20
2016,05,01,01,46,10.20
2016,05,01,01,47,10.20
2016,05,01,01,48,10.20
2016,05,01,01,49,10.20
2016,05,01,01,50,10.20
2016,05,01,01,51,10.20
2016,05,01,01,52,10.20
2016,05,01,01,53,10.20
2016,05,01,01,54,10.30
2016,05,01,01,55,10.30
2016,05,01,01,56,10.20
2016,05,01,01,57,10.20
2016,05,01,01,58,10.20
2016,05,01,01,59,10.20
2016,05,01,02,00,10.20
2016,05,01,02,01,10.20
2016,05,01,02,02,10.20
2016,05,01,02,03,10.10
2016,05,01,02,04,10.10
2016,05,01,02,05,10.10
2016,05,01,02,06,10.10
2016,05,01,02,07,10.10
2016,05,01,02,08,10.00
2016,05,01,02,09,10.00
2016,05,01,02,10,10.00
2016,05,01,02,11,9.90
2016,05,01,02,12,9.90
2016,05,01,02,13,9.90
2016,05,01,02,14,9.90
2016,05,01,02,15,9.90
2016,05,01,02,16,9.80
2016,05,01,02,17,9.80
2016,05,01,02,18,9.80
2016,05,01,02,19,9.80
2016,05,01,02,20,9.80
2016,05,01,02,21,9.80
2016,05,01,02,22,9.70
2016,05,01,02,23,9.70
2016,05,01,02,24,9.70
2016,05,01,02,25,9.70
2016,05,01,02,26,9.70
2016,05,01,02,27,9.70
2016,05,01,02,28,9.70
2016,05,01,02,29,9.60
2016,05,01,02,30,9.60
2016,05,01,02,31,9.60
2016,05,01,02,32,9.60
2016,05,01,02,33,9.60
2016,05,01,02,34,9.60
2016,05,01,02,35,9.60
2016,05,01,02,36,9.60
2016,05,01,02,37,9.60
2016,05,01,02,38,9.60
2016,05,01,02,39,9.50
2016,05,01,02,40,9.50
2016,05,01,02,41,9.50
2016,05,01,02,42,9.50
2016,05,01,02,43,9.50
2016,05,01,02,44,9.50
2016,05,01,02,45,9.40
2016,05,01,02,46,9.40
2016,05,01,02,47,9.40
2016,05,01,02,48,9.40
2016,05,01,02,49,9.40
2016,05,01,02,50,9.50
2016,05,01,02,51,9.50
2016,05,01,02,52,9.50
2016,05,01,02,53,9.60
2016,05,01,02,54,9.60
2016,05,01,02,55,9.60
2016,05,01,02,56,9.60
2016,05,01,02,57,9.60
2016,05,01,02,58,9.60
2016,05,01,02,59,9.60
2016,05,01,03,00,9.70
2016,05,01,03,01,9.70
2016,05,01,03,02,9.70
2016,05,01,03,03,9.70
2016,05,01,03,04,9.70
2016,05,01,03,05,9.70
2016,05,01,03,06,9.70
2016,05,01,03,07,9.70
2016,05,01,03,08,9.70
2016,05,01,03,09,9.70
2016,05,01,03,10,9.70
2016,05,01,03,11,9.70
2016,05,01,03,12,9.70
2016,05,01,03,13,9.60
2016,05,01,03,14,9.60
2016,05,01,03,15,9.60
2016,05,01,03,16,9.60
2016,05,01,03,17,9.60
2016,05,01,03,18,9.60
2016,05,01,03,19,9.60
2016,05,01,03,20,9.50
2016,05,01,03,21,9.50
2016,05,01,03,22,9.40
2016,05,01,03,23,9.40
2016,05,01,03,24,9.40
2016,05,01,03,25,9.40
2016,05,01,03,26,9.30
2016,05,01,03,27,9.30
2016,05,01,03,28,9.30
2016,05,01,03,29,9.30
2016,05,01,03,30,9.30
2016,05,01,03,31,9.20
2016,05,01,03,32,9.20
2016,05,01,03,33,9.20
2016,05,01,03,34,9.20
2016,05,01,03,35,9.20
2016,05,01,03,36,9.20
2016,05,01,03,37,9.20
2016,05,01,03,38,9.20
2016,05,01,03,39,9.20
2016,05,01,03,40,9.10
2016,05,01,03,41,9.10
2016,05,01,03,42,9.10
2016,05,01,03,43,9.10
2016,05,01,03,44,9.10
2016,05,01,03,45,9.10
2016,05,01,03,46,9.10
2016,05,01,03,47,9.10
2016,05,01,03,48,9.00
2016,05,01,03,49,9.00
2016,05,01,03,50,9.00
2016,05,01,03,51,9.00
2016,05,01,03,52,8.90
2016,05,01,03,53,8.90
2016,05,01,03,54,8.90
2016,05,01,03,55,8.90
2016,05,01,03,56,8.90
2016,05,01,03,57,8.90
2016,05,01,03,58,8.90
2016,05,01,03,59,8.90
2016,05,01,04,00,8.80
2016,05,01,04,01,8.80
2016,05,01,04,02,8.80
2016,05,01,04,03,8.80
2016,05,01,04,04,8.80
2016,05,01,04,05,8.80
2016,05,01,04,06,8.80
2016,05,01,04,07,8.80
2016,05,01,04,08,8.80
2016,05,01,04,09,8.80
2016,05,01,04,10,8.80
2016,05,01,04,11,8.70
2016,05,01,04,12,8.70
2016,05,01,04,13,8.70
2016,05,01,04,14,8.70
2016,05,01,04,15,8.70
2016,05,01,04,16,8.70
2016,05,01,04,17,8.70
2016,05,01,04,18,8.70
2016,05,01,04,19,8.70
2016,05,01,04,20,8.70
2016,05,01,04,21,8.70
2016,05,01,04,22,8.70
2016,05,01,04,23,8.60
2016,05,01,04,24,8.60
2016,05,01,04,25,8.60
2016,05,01,04,26,8.60
2016,05,01,04,27,8.60
2016,05,01,04,28,8.60
2016,05,01,04,29,8.60
2016,05,01,04,30,8.60
2016,05,01,04,31,8.50
2016,05,01,04,32,8.50
2016,05,01,04,33,8.50
2016,05,01,04,34,8.50
2016,05,01,04,35,8.40
2016,05,01,04,36,8.40
2016,05,01,04,37,8.40
2016,05,01,04,38,8.40
2016,05,01,04,39,8.40
2016,05,01,04,40,8.40
2016,05,01,04,41,8.30
2016,05,01,04,42,8.30
2016,05,01,04,43,8.30
2016,05,01,04,44,8.30
2016,05,01,04,45,8.30
2016,05,01,04,46,8.30
2016,05,01,04,47,8.30
2016,05,01,04,48,8.30
2016,05,01,04,49,8.30
2016,05,01,04,50,8.20
2016,05,01,04,51,8.20
2016,05,01,04,52,8.20
2016,05,01,04,53,8.20
2016,05,01,04,54,8.20
2016,05,01,04,55,8.20
2016,05,01,04,56,8.20
2016,05,01,04,57,8.20
2016,05,01,04,58,8.20
2016,05,01,04,59,8.20
2016,05,01,05,00,8.20
2016,05,01,05,01,8.10
2016,05,01,05,02,8.10
2016,05,01,05,03,8.10
2016,05,01,05,04,8.10
2016,05,01,05,05,8.10
2016,05,01,05,06,8.10
2016,05,01,05,07,8.10
2016,05,01,05,08,8.10
2016,05,01,05,09,8.10
2016,05,01,05,10,8.10
2016,05,01,05,11,8.10
2016,05,01,05,12,8.10
2016,05,01,05,13,8.10
2016,05,01,05,14,8.10
2016,05,01,05,15,8.10
2016,05,01,05,16,8.10
2016,05,01,05,17,8.10
2016,05,01,05,18,8.10
2016,05,01,05,19,8.10
2016,05,01,05,20,8.10
2016,05,01,05,21,8.10
2016,05,01,05,22,8.10
2016,05,01,05,23,8.10
2016,05,01,05,24,8.10
2016,05,01,05,25,8.00
2016,05,01,05,26,8.00
2016,05,01,05,27,8.00
2016,05,01,05,28,8.00
2016,05,01,05,29,8.00
2016,05,01,05,30,8.00
2016,05,01,05,31,8.00
2016,05,01,05,32,8.00
2016,05,01,05,33,7.90
2016,05,01,05,34,7.90
2016,05,01,05,35,7.90
2016,05,01,05,36,7.90
2016,05,01,05,37,7.90
2016,05,01,05,38,7.90
2016,05,01,05,39,7.90
2016,05,01,05,40,7.90
2016,05,01,05,41,7.90
2016,05,01,05,42,7.90
2016,05,01,05,43,7.90
2016,05,01,05,44,7.90
2016,05,01,05,45,7.80
2016,05,01,05,46,7.80
2016,05,01,05,47,7.80
2016,05,01,05,48,7.80
2016,05,01,05,49,7.80
2016,05,01,05,50,7.80
2016,05,01,05,51,7.80
2016,05,01,05,52,7.80
2016,05,01,05,53,7.80
2016,05,01,05,54,7.80
2016,05,01,05,55,7.80
2016,05,01,05,56,7.80
2016,05,01,05,57,7.70
2016,05,01,05,58,7.70
2016,05,01,05,59,7.70
2016,05,01,06,00,7.70
2016,05,01,06,01,7.70
2016,05,01,06,02,7.70
2016,05,01,06,03,7.70
2016,05,01,06,04,7.70
2016,05,01,06,05,7.70
2016,05,01,06,06,7.70
2016,05,01,06,07,7.70
2016,05,01,06,08,7.60
2016,05,01,06,09,7.60
2016,05,01,06,10,7.60
2016,05,01,06,11,7.60
2016,05,01,06,12,7.60
2016,05,01,06,13,7.60
2016,05,01,06,14,7.60
2016,05,01,06,15,7.60
2016,05,01,06,16,7.70
2016,05,01,06,17,7.70
2016,05,01,06,18,7.70
2016,05,01,06,19,7.70
2016,05,01,06,20,7.70
2016,05,01,06,21,7.70
2016,05,01,06,22,7.70
2016,05,01,06,23,7.70
2016,05,01,06,24,7.70
2016,05,01,06,25,7.70
2016,05,01,06,26,7.70
2016,05,01,06,27,7.70
2016,05,01,06,28,7.70
2016,05,01,06,29,7.70
2016,05,01,06,30,7.70
2016,05,01,06,31,7.70
2016,05,01,06,32,7.80
2016,05,01,06,33,7.80
2016,05,01,06,34,7.80
2016,05,01,06,35,7.80
2016,05,01,06,36,7.80
2016,05,01,06,37,7.80
2016,05,01,06,38,7.80
2016,05,01,06,39,7.90
2016,05,01,06,40,7.90
2016,05,01,06,41,7.90
2016,05,01,06,42,7.90
2016,05,01,06,43,7.90
2016,05,01,06,44,7.90
2016,05,01,06,45,7.90
2016,05,01,06,46,7.90
2016,05,01,06,47,8.00
2016,05,01,06,48,8.00
2016,05,01,06,49,8.00
2016,05,01,06,50,8.10
2016,05,01,06,51,8.10
2016,05,01,06,52,8.10
2016,05,01,06,53,8.20
2016,05,01,06,54,8.20
2016,05,01,06,55,8.20
2016,05,01,06,56,8.30
2016,05,01,06,57,8.30
2016,05,01,06,58,8.30
2016,05,01,06,59,8.40
2016,05,01,07,00,8.40
2016,05,01,07,01,8.40
2016,05,01,07,02,8.50
2016,05,01,07,03,8.50
2016,05,01,07,04,8.60
2016,05,01,07,05,8.60
2016,05,01,07,06,8.60
2016,05,01,07,07,8.70
2016,05,01,07,08,8.70
2016,05,01,07,09,8.70
2016,05,01,07,10,8.70
2016,05,01,07,11,8.80
2016,05,01,07,12,8.80
2016,05,01,07,13,8.80
2016,05,01,07,14,8.90
2016,05,01,07,15,8.90
2016,05,01,07,16,9.00
2016,05,01,07,17,9.00
2016,05,01,07,18,9.10
2016,05,01,07,19,9.10
2016,05,01,07,20,9.20
2016,05,01,07,21,9.20
2016,05,01,07,22,9.20
2016,05,01,07,23,9.20
2016,05,01,07,24,9.30
2016,05,01,07,25,9.30
2016,05,01,07,26,9.40
2016,05,01,07,27,9.40
2016,05,01,07,28,9.50
2016,05,01,07,29,9.60
2016,05,01,07,30,9.60
2016,05,01,07,31,9.70
2016,05,01,07,32,9.70
2016,05,01,07,33,9.80
2016,05,01,07,34,9.80
2016,05,01,07,35,9.90
2016,05,01,07,36,9.90
2016,05,01,07,37,10.00
2016,05,01,07,38,10.00
2016,05,01,07,39,10.10
2016,05,01,07,40,10.10
2016,05,01,07,41,10.20
2016,05,01,07,42,10.20
2016,05,01,07,43,10.30
2016,05,01,07,44,10.30
2016,05,01,07,45,10.40
2016,05,01,07,46,10.50
2016,05,01,07,47,10.50
2016,05,01,07,48,10.60
2016,05,01,07,49,10.70
2016,05,01,07,50,10.80
2016,05,01,07,51,10.80
2016,05,01,07,52,10.90
2016,05,01,07,53,11.00
2016,05,01,07,54,11.10
2016,05,01,07,55,11.10
2016,05,01,07,56,11.20
2016,05,01,07,57,11.30
2016,05,01,07,58,11.30
2016,05,01,07,59,11.40
2016,05,01,08,00,11.50
2016,05,01,08,01,11.60
2016,05,01,08,02,11.70
2016,05,01,08,03,11.80
2016,05,01,08,04,11.90
2016,05,01,08,05,12.00
2016,05,01,08,06,12.10
2016,05,01,08,07,12.20
2016,05,01,08,08,12.30
2016,05,01,08,09,12.40
2016,05,01,08,10,12.50
2016,05,01,08,11,12.60
2016,05,01,08,12,12.70
2016,05,01,08,13,12.80
2016,05,01,08,14,12.90
2016,05,01,08,15,12.90
2016,05,01,08,16,13.00
2016,05,01,08,17,13.10
2016,05,01,08,18,13.20
2016,05,01,08,19,13.20
2016,05,01,08,20,13.30
2016,05,01,08,21,13.30
2016,05,01,08,22,13.40
2016,05,01,08,23,13.50
2016,05,01,08,24,13.60
2016,05,01,08,25,13.70
2016,05,01,08,26,13.70
2016,05,01,08,27,13.80
2016,05,01,08,28,13.90
2016,05,01,08,29,14.00
2016,05,01,08,30,14.10
2016,05,01,08,31,14.10
2016,05,01,08,32,14.20
2016,05,01,08,33,14.20
2016,05,01,08,34,14.30
2016,05,01,08,35,14.30
2016,05,01,08,36,14.30
2016,05,01,08,37,14.40
2016,05,01,08,38,14.40
2016,05,01,08,39,14.40
2016,05,01,08,40,14.50
2016,05,01,08,41,14.50
2016,05,01,08,42,14.60
2016,05,01,08,43,14.70
2016,05,01,08,44,14.70
2016,05,01,08,45,14.70
2016,05,01,08,46,14.80
2016,05,01,08,47,14.80
2016,05,01,08,48,14.90
2016,05,01,08,49,15.00
2016,05,01,08,50,15.00
2016,05,01,08,51,15.00
2016,05,01,08,52,15.10
2016,05,01,08,53,15.20
2016,05,01,08,54,15.20
2016,05,01,08,55,15.20
2016,05,01,08,56,15.30
2016,05,01,08,57,15.30
2016,05,01,08,58,15.40
2016,05,01,08,59,15.40
2016,05,01,09,00,15.50
2016,05,01,09,01,15.50
2016,05,01,09,02,15.50
2016,05,01,09,03,15.50
2016,05,01,09,04,15.60
2016,05,01,09,05,15.60
2016,05,01,09,06,15.60
2016,05,01,09,07,15.70
2016,05,01,09,08,15.70
2016,05,01,09,09,15.70
2016,05,01,09,10,15.70
2016,05,01,09,11,15.80
2016,05,01,09,12,15.80
2016,05,01,09,13,15.90
2016,05,01,09,14,15.90
2016,05,01,09,15,16.00
2016,05,01,09,16,16.10
2016,05,01,09,17,16.20
2016,05,01,09,18,16.30
2016,05,01,09,19,16.30
2016,05,01,09,20,16.40
2016,05,01,09,21,16.40
2016,05,01,09,22,16.40
2016,05,01,09,23,16.50
2016,05,01,09,24,16.60
2016,05,01,09,25,16.60
2016,05,01,09,26,16.70
2016,05,01,09,27,16.70
2016,05,01,09,28,16.80
2016,05,01,09,29,16.90
2016,05,01,09,30,17.00
2016,05,01,09,31,17.10
2016,05,01,09,32,17.20
2016,05,01,09,33,17.20
2016,05,01,09,34,17.30
2016,05,01,09,35,17.40
2016,05,01,09,36,17.50
2016,05,01,09,37,17.60
2016,05,01,09,38,17.50
2016,05,01,09,39,17.50
2016,05,01,09,40,17.60
2016,05,01,09,41,17.60
2016,05,01,09,42,17.70
2016,05,01,09,43,17.70
2016,05,01,09,44,17.70
2016,05,01,09,45,17.70
2016,05,01,09,46,17.80
2016,05,01,09,47,17.80
2016,05,01,09,48,17.80
2016,05,01,09,49,17.80
2016,05,01,09,50,17.80
2016,05,01,09,51,17.80
2016,05,01,09,52,17.80
2016,05,01,09,53,17.80
2016,05,01,09,54,17.90
2016,05,01,09,55,17.90
2016,05,01,09,56,17.90
2016,05,01,09,57,18.00
2016,05,01,09,58,18.00
2016,05,01,09,59,18.10
2016,05,01,10,00,18.10
2016,05,01,10,01,18.10
2016,05,01,10,02,18.10
2016,05,01,10,03,18.10
2016,05,01,10,04,18.10
2016,05,01,10,05,18.20
2016,05,01,10,06,18.20
2016,05,01,10,07,18.20
2016,05,01,10,08,18.20
2016,05,01,10,09,18.10
2016,05,01,10,10,18.10
2016,05,01,10,11,18.10
2016,05,01,10,12,18.10
2016,05,01,10,13,18.20
2016,05,01,10,14,18.20
2016,05,01,10,15,18.20
2016,05,01,10,16,18.20
2016,05,01,10,17,18.20
2016,05,01,10,18,18.20
2016,05,01,10,19,18.20
2016,05,01,10,20,18.30
2016,05,01,10,21,18.30
2016,05,01,10,22,18.30
2016,05,01,10,23,18.30
2016,05,01,10,24,18.30
2016,05,01,10,25,18.40
2016,05,01,10,26,18.40
2016,05,01,10,27,18.40
2016,05,01,10,28,18.40
2016,05,01,10,29,18.40
2016,05,01,10,30,18.40
2016,05,01,10,31,18.30
2016,05,01,10,32,18.30
2016,05,01,10,33,18.20
2016,05,01,10,34,18.20
2016,05,01,10,35,18.30
2016,05,01,10,36,18.30
2016,05,01,10,37,18.30
2016,05,01,10,38,18.30
2016,05,01,10,39,18.30
2016,05,01,10,40,18.20
2016,05,01,10,41,18.20
2016,05,01,10,42,18.30
2016,05,01,10,43,18.20
2016,05,01,10,44,18.10
2016,05,01,10,45,18.10
2016,05,01,10,46,18.10
2016,05,01,10,47,18.20
2016,05,01,10,48,18.20
2016,05,01,10,49,18.30
2016,05,01,10,50,18.30
2016,05,01,10,51,18.30
2016,05,01,10,52,18.30
2016,05,01,10,53,18.20
2016,05,01,10,54,18.30
2016,05,01,10,55,18.30
2016,05,01,10,56,18.40
2016,05,01,10,57,18.40
2016,05,01,10,58,18.40
2016,05,01,10,59,18.30
2016,05,01,11,00,18.30
2016,05,01,11,01,18.30
2016,05,01,11,02,18.40
2016,05,01,11,03,18.40
2016,05,01,11,04,18.50
2016,05,01,11,05,18.60
2016,05,01,11,06,18.60
2016,05,01,11,07,18.60
2016,05,01,11,08,18.60
2016,05,01,11,09,18.70
2016,05,01,11,10,18.70
2016,05,01,11,11,18.80
2016,05,01,11,12,18.80
2016,05,01,11,13,18.90
2016,05,01,11,14,19.00
2016,05,01,11,15,19.10
2016,05,01,11,16,19.20
2016,05,01,11,17,19.30
2016,05,01,11,18,19.30
2016,05,01,11,19,19.40
2016,05,01,11,20,19.40
2016,05,01,11,21,19.50
2016,05,01,11,22,19.60
2016,05,01,11,23,19.60
2016,05,01,11,24,19.70
2016,05,01,11,25,19.70
2016,05,01,11,26,19.60
2016,05,01,11,27,19.60
2016,05,01,11,28,19.70
2016,05,01,11,29,19.70
2016,05,01,11,30,19.80
2016,05,01,11,31,19.80
2016,05,01,11,32,19.70
2016,05,01,11,33,19.70
2016,05,01,11,34,19.80
2016,05,01,11,35,19.80
2016,05,01,11,36,19.80
2016,05,01,11,37,19.80
2016,05,01,11,38,19.80
2016,05,01,11,39,19.70
2016,05,01,11,40,19.60
2016,05,01,11,41,19.50
2016,05,01,11,42,19.50
2016,05,01,11,43,19.50
2016,05,01,11,44,19.50
2016,05,01,11,45,19.50
2016,05,01,11,46,19.40
2016,05,01,11,47,19.30
2016,05,01,11,48,19.10
2016,05,01,11,49,19.10
2016,05,01,11,50,19.00
2016,05,01,11,51,19.00
2016,05,01,11,52,19.10
2016,05,01,11,53,19.20
2016,05,01,11,54,19.30
2016,05,01,11,55,19.30
2016,05,01,11,56,19.30
2016,05,01,11,57,19.20
2016,05,01,11,58,19.30
2016,05,01,11,59,19.30
2016,05,01,12,00,19.30
2016,05,01,12,01,19.40
2016,05,01,12,02,19.40
2016,05,01,12,03,19.40
2016,05,01,12,04,19.40
2016,05,01,12,05,19.50
2016,05,01,12,06,19.50
2016,05,01,12,07,19.50
2016,05,01,12,08,19.50
2016,05,01,12,09,19.50
2016,05,01,12,10,19.40
2016,05,01,12,11,19.30
2016,05,01,12,12,19.30
2016,05,01,12,13,19.30
2016,05,01,12,14,19.40
2016,05,01,12,15,19.50
2016,05,01,12,16,19.50
2016,05,01,12,17,19.40
2016,05,01,12,18,19.40
2016,05,01,12,19,19.40
2016,05,01,12,20,19.40
2016,05,01,12,21,19.40
2016,05,01,12,22,19.40
2016,05,01,12,23,19.40
2016,05,01,12,24,19.40
2016,05,01,12,25,19.40
2016,05,01,12,26,19.40
2016,05,01,12,27,19.50
2016,05,01,12,28,19.50
2016,05,01,12,29,19.50
2016,05,01,12,30,19.50
2016,05,01,12,31,19.50
2016,05,01,12,32,19.40
2016,05,01,12,33,19.40
2016,05,01,12,34,19.30
2016,05,01,12,35,19.30
2016,05,01,12,36,19.20
2016,05,01,12,37,19.10
2016,05,01,12,38,19.10
2016,05,01,12,39,19.10
2016,05,01,12,40,19.00
2016,05,01,12,41,18.90
2016,05,01,12,42,18.90
2016,05,01,12,43,18.80
2016,05,01,12,44,18.80
2016,05,01,12,45,18.90
2016,05,01,12,46,18.90
2016,05,01,12,47,18.90
2016,05,01,12,48,18.90
2016,05,01,12,49,19.00
2016,05,01,12,50,19.10
2016,05,01,12,51,19.20
2016,05,01,12,52,19.30
2016,05,01,12,53,19.30
2016,05,01,12,54,19.30
2016,05,01,12,55,19.40
2016,05,01,12,56,19.40
2016,05,01,12,57,19.30
2016,05,01,12,58,19.30
2016,05,01,12,59,19.10
2016,05,01,13,00,18.90
2016,05,01,13,01,18.80
2016,05,01,13,02,18.70
2016,05,01,13,03,18.70
2016,05,01,13,04,18.60
2016,05,01,13,05,18.60
2016,05,01,13,06,18.60
2016,05,01,13,07,18.60
2016,05,01,13,08,18.50
2016,05,01,13,09,18.40
2016,05,01,13,10,18.40
2016,05,01,13,11,18.40
2016,05,01,13,12,18.30
2016,05,01,13,13,18.30
2016,05,01,13,14,18.30
2016,05,01,13,15,18.20
2016,05,01,13,16,18.30
2016,05,01,13,17,18.40
2016,05,01,13,18,18.50
2016,05,01,13,19,18.70
2016,05,01,13,20,18.80
2016,05,01,13,21,18.90
2016,05,01,13,22,19.10
2016,05,01,13,23,19.10
2016,05,01,13,24,19.20
2016,05,01,13,25,19.20
2016,05,01,13,26,19.30
2016,05,01,13,27,19.40
2016,05,01,13,28,19.40
2016,05,01,13,29,19.50
2016,05,01,13,30,19.60
2016,05,01,13,31,19.60
2016,05,01,13,32,19.50
2016,05,01,13,33,19.40
2016,05,01,13,34,19.30
2016,05,01,13,35,19.30
2016,05,01,13,36,19.30
2016,05,01,13,37,19.30
2016,05,01,13,38,19.40
2016,05,01,13,39,19.40
2016,05,01,13,40,19.50
2016,05,01,13,41,19.60
2016,05,01,13,42,19.60
2016,05,01,13,43,19.70
2016,05,01,13,44,19.60
2016,05,01,13,45,19.70
2016,05,01,13,46,19.70
2016,05,01,13,47,19.60
2016,05,01,13,48,19.70
2016,05,01,13,49,19.70
2016,05,01,13,50,19.70
2016,05,01,13,51,19.80
2016,05,01,13,52,19.80
2016,05,01,13,53,19.90
2016,05,01,13,54,19.90
2016,05,01,13,55,19.90
2016,05,01,13,56,19.90
2016,05,01,13,57,19.90
2016,05,01,13,58,20.00
2016,05,01,13,59,20.10
2016,05,01,14,00,20.30
2016,05,01,14,01,20.40
2016,05,01,14,02,20.50
2016,05,01,14,03,20.70
2016,05,01,14,04,20.80
2016,05,01,14,05,20.90
2016,05,01,14,06,21.00
2016,05,01,14,07,21.10
2016,05,01,14,08,21.10
2016,05,01,14,09,21.20
2016,05,01,14,10,21.10
2016,05,01,14,11,21.00
2016,05,01,14,12,20.80
2016,05,01,14,13,20.60
2016,05,01,14,14,20.50
2016,05,01,14,15,20.40
2016,05,01,14,16,20.30
2016,05,01,14,17,20.40
2016,05,01,14,18,20.50
2016,05,01,14,19,20.50
2016,05,01,14,20,20.50
2016,05,01,14,21,20.50
2016,05,01,14,22,20.50
2016,05,01,14,23,20.50
2016,05,01,14,24,20.50
2016,05,01,14,25,20.50
2016,05,01,14,26,20.60
2016,05,01,14,27,20.60
2016,05,01,14,28,20.70
2016,05,01,14,29,20.70
2016,05,01,14,30,20.70
2016,05,01,14,31,20.80
2016,05,01,14,32,20.80
2016,05,01,14,33,20.80
2016,05,01,14,34,20.80
2016,05,01,14,35,20.70
2016,05,01,14,36,20.70
2016,05,01,14,37,20.80
2016,05,01,14,38,20.80
2016,05,01,14,39,21.00
2016,05,01,14,40,21.10
2016,05,01,14,41,21.30
2016,05,01,14,42,21.50
2016,05,01,14,43,21.70
2016,05,01,14,44,21.90
2016,05,01,14,45,22.10
2016,05,01,14,46,22.30
2016,05,01,14,47,22.60
2016,05,01,14,48,22.80
2016,05,01,14,49,23.00
2016,05,01,14,50,23.20
2016,05,01,14,51,23.40
2016,05,01,14,52,23.50
2016,05,01,14,53,23.60
2016,05,01,14,54,23.70
2016,05,01,14,55,23.80
2016,05,01,14,56,23.80
2016,05,01,14,57,23.90
2016,05,01,14,58,24.00
2016,05,01,14,59,24.10
2016,05,01,15,00,24.10
2016,05,01,15,01,24.20
2016,05,01,15,02,24.30
2016,05,01,15,03,24.40
2016,05,01,15,04,24.40
2016,05,01,15,05,24.50
2016,05,01,15,06,24.60
2016,05,01,15,07,24.60
2016,05,01,15,08,24.70
2016,05,01,15,09,24.70
2016,05,01,15,10,24.70
2016,05,01,15,11,24.70
2016,05,01,15,12,24.60
2016,05,01,15,13,24.60
2016,05,01,15,14,24.60
2016,05,01,15,15,24.60
2016,05,01,15,16,24.60
2016,05,01,15,17,24.60
2016,05,01,15,18,24.70
2016,05,01,15,19,24.70
2016,05,01,15,20,24.70
2016,05,01,15,21,24.70
2016,05,01,15,22,24.70
2016,05,01,15,23,24.70
2016,05,01,15,24,24.60
2016,05,01,15,25,24.50
2016,05,01,15,26,24.40
2016,05,01,15,27,24.40
2016,05,01,15,28,24.30
2016,05,01,15,29,24.20
2016,05,01,15,30,24.30
2016,05,01,15,31,24.30
2016,05,01,15,32,24.30
2016,05,01,15,33,24.30
2016,05,01,15,34,24.30
2016,05,01,15,35,24.30
2016,05,01,15,36,24.30
2016,05,01,15,37,24.30
2016,05,01,15,38,24.40
2016,05,01,15,39,24.50
2016,05,01,15,40,24.60
2016,05,01,15,41,24.80
2016,05,01,15,42,24.80
2016,05,01,15,43,24.90
2016,05,01,15,44,25.00
2016,05,01,15,45,25.00
2016,05,01,15,46,24.90
2016,05,01,15,47,24.90
2016,05,01,15,48,24.90
2016,05,01,15,49,24.90
2016,05,01,15,50,24.90
2016,05,01,15,51,24.90
2016,05,01,15,52,24.80
2016,05,01,15,53,24.80
2016,05,01,15,54,24.70
2016,05,01,15,55,24.60
2016,05,01,15,56,24.50
2016,05,01,15,57,24.30
2016,05,01,15,58,24.20
2016,05,01,15,59,24.10
2016,05,01,16,00,23.90
2016,05,01,16,01,23.70
2016,05,01,16,02,23.60
2016,05,01,16,03,23.50
2016,05,01,16,04,23.50
2016,05,01,16,05,23.60
2016,05,01,16,06,23.60
2016,05,01,16,07,23.70
2016,05,01,16,08,23.80
2016,05,01,16,09,23.90
2016,05,01,16,10,24.00
2016,05,01,16,11,24.10
2016,05,01,16,12,24.20
2016,05,01,16,13,24.30
2016,05,01,16,14,24.40
2016,05,01,16,15,24.50
2016,05,01,16,16,24.60
2016,05,01,16,17,24.70
2016,05,01,16,18,24.80
2016,05,01,16,19,24.80
2016,05,01,16,20,24.80
2016,05,01,16,21,24.70
2016,05,01,16,22,24.60
2016,05,01,16,23,24.50
2016,05,01,16,24,24.50
2016,05,01,16,25,24.40
2016,05,01,16,26,24.40
2016,05,01,16,27,24.40
2016,05,01,16,28,24.40
2016,05,01,16,29,24.50
2016,05,01,16,30,24.50
2016,05,01,16,31,24.60
2016,05,01,16,32,24.60
2016,05,01,16,33,24.70
2016,05,01,16,34,24.80
2016,05,01,16,35,24.80
2016,05,01,16,36,24.80
2016,05,01,16,37,24.80
2016,05,01,16,38,24.90
2016,05,01,16,39,24.90
2016,05,01,16,40,25.00
2016,05,01,16,41,25.10
2016,05,01,16,42,25.10
2016,05,01,16,43,25.10
2016,05,01,16,44,25.20
2016,05,01,16,45,25.30
2016,05,01,16,46,25.40
2016,05,01,16,47,25.40
2016,05,01,16,48,25.30
2016,05,01,16,49,25.30
2016,05,01,16,50,25.30
2016,05,01,16,51,25.30
2016,05,01,16,52,25.30
2016,05,01,16,53,25.30
2016,05,01,16,54,25.40
2016,05,01,16,55,25.40
2016,05,01,16,56,25.30
2016,05,01,16,57,25.30
2016,05,01,16,58,25.20
2016,05,01,16,59,25.20
2016,05,01,17,00,25.20
2016,05,01,17,01,25.20
2016,05,01,17,02,25.20
2016,05,01,17,03,25.10
2016,05,01,17,04,25.10
2016,05,01,17,05,25.10
2016,05,01,17,06,25.10
2016,05,01,17,07,25.10
2016,05,01,17,08,25.10
2016,05,01,17,09,25.10
2016,05,01,17,10,25.20
2016,05,01,17,11,25.10
2016,05,01,17,12,25.00
2016,05,01,17,13,24.90
2016,05,01,17,14,24.90
2016,05,01,17,15,24.80
2016,05,01,17,16,24.80
2016,05,01,17,17,24.80
2016,05,01,17,18,24.80
2016,05,01,17,19,24.70
2016,05,01,17,20,24.80
2016,05,01,17,21,24.80
2016,05,01,17,22,24.80
2016,05,01,17,23,24.80
2016,05,01,17,24,24.80
2016,05,01,17,25,24.90
2016,05,01,17,26,24.90
2016,05,01,17,27,24.90
2016,05,01,17,28,24.90
2016,05,01,17,29,24.90
2016,05,01,17,30,24.90
2016,05,01,17,31,25.00
2016,05,01,17,32,25.00
2016,05,01,17,33,24.90